Weather History for Elizabethtown, NC

Change the Weather History Date:

Sunday, May 4, 2014

  Actual Average (KILM) Record (KILM)
Temperature  
Mean Temperature 70 °F 67 °F  
Max Temperature 84 °F 78 °F 92 °F (1913)
Min Temperature 57 °F 56 °F 42 °F (1971)
Degree Days  
Heating Degree Days 0 2  
Month to date heating degree days 8  
Since 1 July heating degree days 2390  
Cooling Degree Days 6 4  
Month to date cooling degree days 16  
Year to date cooling degree days 104  
Growing Degree Days 20 (Base 50)    
Moisture  
Dew Point 48 °F    
Average Humidity 47    
Maximum Humidity 72    
Minimum Humidity 25    
Precipitation  
Precipitation 0.00 in 0.12 in 1.51 in (1910)
Month to date precipitation 0.46  
Year to date precipitation 14.87  
Sea Level Pressure  
Sea Level Pressure 29.94 in    
Wind  
Wind Speed 5 mph (West)    
Max Wind Speed 14 mph    
Max Gust Speed 20 mph    
Visibility 10 miles    
Events      
T = Trace of Precipitation, MM = Missing Value Source: NWS Daily Summary

Daily Weather History Graph

Daily Weather History Graph

Search for Another Location

Airport:

Trip Planner

Search our weather history database for the weather conditions in past years. The results will help you decide how hot, cold, wet, or windy it might be!

Date:

Astronomy

May. 04, 2014 Rise Set
Actual Time 6:21 AM EDT 8:01 PM EDT
Civil Twilight 5:54 AM EDT 8:28 PM EDT
Nautical Twilight 5:21 AM EDT 9:01 PM EDT
Astronomical Twilight 4:47 AM EDT 9:36 PM EDT
Moon 10:44 AM EDT (5/4) 12:04 AM EDT (5/4)
Length of Visible Light 14h 34m
Length of Day
13h 40m
Waxing Crescent, 27% of the Moon is Illuminated
May 4
Waxing Crescent
May 6
First Quarter
May 14
Full
May 21
Last Quarter
May 28
New

Hourly Weather History & Observations

Time (EDT) Temp. Dew Point Humidity Pressure Visibility Wind Dir Wind Speed Gust Speed Precip Events Conditions
12:15 AM 59.4 °F 50.0 °F 71% 29.96 in 10.0 mi SW 3.5 mph - N/A   Clear
12:35 AM 59.9 °F 50.0 °F 70% 29.96 in 10.0 mi Calm Calm - N/A   Clear
12:55 AM 60.1 °F 49.6 °F 68% 29.96 in 10.0 mi Calm Calm - N/A   Clear
1:15 AM 59.0 °F 50.0 °F 72% 29.96 in 10.0 mi SW 3.5 mph - N/A   Clear
1:35 AM 60.1 °F 49.6 °F 68% 29.96 in 10.0 mi SW 4.6 mph - N/A   Clear
1:55 AM 60.3 °F 49.3 °F 67% 29.96 in 10.0 mi WSW 3.5 mph - N/A   Clear
2:15 AM 61.0 °F 49.1 °F 65% 29.95 in 10.0 mi WSW 3.5 mph - N/A   Clear
2:35 AM 61.0 °F 49.1 °F 65% 29.96 in 10.0 mi West 4.6 mph - N/A   Clear
2:55 AM 59.9 °F 48.6 °F 66% 29.95 in 10.0 mi West 4.6 mph - N/A   Clear
3:15 AM 61.0 °F 48.2 °F 63% 29.95 in 10.0 mi West 4.6 mph - N/A   Clear
3:35 AM 61.0 °F 48.2 °F 63% 29.95 in 10.0 mi West 4.6 mph - N/A   Clear
3:55 AM 60.6 °F 47.7 °F 62% 29.95 in 10.0 mi West 5.8 mph - N/A   Clear
4:15 AM 60.6 °F 47.7 °F 62% 29.95 in 10.0 mi West 3.5 mph - N/A   Clear
4:35 AM 61.0 °F 47.3 °F 61% 29.95 in 10.0 mi WNW 5.8 mph - N/A   Clear
4:55 AM 61.0 °F 47.3 °F 61% 29.96 in 10.0 mi WNW 4.6 mph - N/A   Clear
5:15 AM 59.5 °F 47.1 °F 63% 29.96 in 10.0 mi WNW 3.5 mph - N/A   Clear
5:35 AM 59.5 °F 46.8 °F 63% 29.96 in 10.0 mi WNW 5.8 mph - N/A   Clear
5:55 AM 59.0 °F 46.8 °F 64% 29.97 in 10.0 mi WNW 4.6 mph - N/A   Clear
6:15 AM 58.3 °F 46.8 °F 66% 29.97 in 10.0 mi Calm Calm - N/A   Clear
6:35 AM 57.4 °F 46.9 °F 68% 29.98 in 10.0 mi Calm Calm - N/A   Clear
6:55 AM 57.2 °F 47.3 °F 69% 29.99 in 10.0 mi Calm Calm - N/A   Clear
7:15 AM 57.4 °F 47.5 °F 70% 29.99 in 10.0 mi Calm Calm - N/A   Clear
7:35 AM 59.2 °F 47.8 °F 66% 30.00 in 10.0 mi Calm Calm - N/A   Clear
7:55 AM 61.2 °F 47.5 °F 61% 30.00 in 10.0 mi NW 4.6 mph - N/A   Clear
8:15 AM 62.8 °F 48.9 °F 61% 30.01 in 10.0 mi NW 4.6 mph - N/A   Clear
8:35 AM 64.4 °F 48.2 °F 56% 30.01 in 10.0 mi NNW 3.5 mph - N/A   Clear
8:55 AM 65.3 °F 48.0 °F 54% 30.01 in 10.0 mi NW 3.5 mph - N/A   Clear
9:15 AM 66.7 °F 48.7 °F 52% 30.01 in 10.0 mi Calm Calm - N/A   Clear
9:35 AM 68.9 °F 48.7 °F 49% 30.01 in 10.0 mi NNW 3.5 mph - N/A   Clear
9:55 AM 70.3 °F 48.7 °F 46% 30.02 in 10.0 mi NW 3.5 mph - N/A   Clear
10:15 AM 71.8 °F 49.3 °F 45% 30.01 in 10.0 mi Calm Calm - N/A   Clear
10:35 AM 73.8 °F 47.1 °F 39% 30.01 in 10.0 mi NW 8.1 mph - N/A   Clear
10:55 AM 75.4 °F 46.8 °F 36% 30.01 in 10.0 mi NW 8.1 mph - N/A   Clear
11:15 AM 76.6 °F 45.5 °F 33% 30.01 in 10.0 mi NW 8.1 mph - N/A   Clear
11:35 AM 77.0 °F 44.8 °F 32% 30.01 in 10.0 mi WNW 6.9 mph - N/A   Clear
11:55 AM 78.1 °F 41.2 °F 27% 30.00 in 10.0 mi WNW 8.1 mph - N/A   Clear
12:15 PM 79.0 °F 41.7 °F 26% 29.99 in 10.0 mi WNW 11.5 mph 18.4 mph N/A   Clear
12:35 PM 78.6 °F 41.7 °F 27% 29.99 in 10.0 mi NW 11.5 mph - N/A   Clear
12:55 PM 80.2 °F 44.1 °F 28% 29.99 in 10.0 mi West 13.8 mph 17.3 mph N/A   Clear
1:15 PM 79.3 °F 43.0 °F 27% 29.97 in 10.0 mi NW 9.2 mph - N/A   Clear
1:35 PM 80.2 °F 43.9 °F 28% 29.96 in 10.0 mi SW 5.8 mph - N/A   Clear
1:55 PM 80.4 °F 43.5 °F 27% 29.96 in 10.0 mi WNW 10.4 mph - N/A   Clear
2:15 PM 80.8 °F 44.2 °F 27% 29.94 in 10.0 mi WNW 9.2 mph - N/A   Clear
2:35 PM 82.0 °F 44.2 °F 26% 29.93 in 10.0 mi WNW 8.1 mph - N/A   Clear
2:55 PM 82.0 °F 44.4 °F 27% 29.93 in 10.0 mi WSW 8.1 mph - N/A   Clear
3:15 PM 82.8 °F 44.4 °F 26% 29.91 in 10.0 mi West 9.2 mph - N/A   Clear
3:35 PM 83.7 °F 44.8 °F 26% 29.91 in 10.0 mi West 9.2 mph 17.3 mph N/A   Clear
3:55 PM 83.8 °F 44.4 °F 25% 29.90 in 10.0 mi West 10.4 mph 16.1 mph N/A   Clear
4:15 PM 83.8 °F 45.7 °F 26% 29.89 in 10.0 mi WSW 10.4 mph 16.1 mph N/A   Clear
4:35 PM 83.8 °F 45.5 °F 26% 29.89 in 10.0 mi West 12.7 mph 17.3 mph N/A   Clear
4:55 PM 83.8 °F 45.9 °F 26% 29.89 in 10.0 mi West 11.5 mph 19.6 mph N/A   Clear
5:15 PM 84.2 °F 45.3 °F 26% 29.88 in 10.0 mi WSW 10.4 mph 17.3 mph N/A   Clear
5:35 PM 84.6 °F 45.9 °F 26% 29.88 in 10.0 mi West 8.1 mph - N/A   Clear
5:55 PM 84.0 °F 46.2 °F 27% 29.87 in 10.0 mi WSW 8.1 mph - N/A   Clear
6:15 PM 84.0 °F 46.9 °F 27% 29.86 in 10.0 mi WSW 5.8 mph - N/A   Clear
6:35 PM 83.8 °F 47.3 °F 28% 29.86 in 10.0 mi SW 6.9 mph - N/A   Clear
6:55 PM 82.9 °F 47.1 °F 29% 29.86 in 10.0 mi WSW 5.8 mph - N/A   Clear
7:15 PM 82.0 °F 47.7 °F 30% 29.86 in 10.0 mi WSW 6.9 mph - N/A   Clear
7:35 PM 80.6 °F 47.1 °F 31% 29.87 in 10.0 mi SW 5.8 mph - N/A   Clear
7:55 PM 78.3 °F 48.9 °F 36% 29.87 in 10.0 mi Calm Calm - N/A   Clear
8:15 PM 77.0 °F 50.7 °F 40% 29.88 in 10.0 mi Calm Calm - N/A   Clear
8:35 PM 75.2 °F 50.4 °F 42% 29.88 in 10.0 mi Calm Calm - N/A   Clear
8:55 PM 73.8 °F 51.1 °F 45% 29.89 in 10.0 mi South 4.6 mph - N/A   Clear
9:15 PM 72.0 °F 52.2 °F 50% 29.89 in 10.0 mi South 6.9 mph - N/A   Clear
9:35 PM 71.1 °F 53.6 °F 54% 29.90 in 10.0 mi South 4.6 mph - N/A   Clear
9:55 PM 70.7 °F 54.0 °F 55% 29.90 in 10.0 mi South 6.9 mph - N/A   Clear
10:15 PM 70.5 °F 54.5 °F 57% 29.91 in 10.0 mi SSW 5.8 mph - N/A   Clear
10:35 PM 70.3 °F 54.7 °F 58% 29.91 in 10.0 mi SSW 5.8 mph - N/A   Clear
10:55 PM 69.8 °F 54.9 °F 59% 29.91 in 10.0 mi SSW 6.9 mph - N/A   Clear
11:15 PM 69.8 °F 54.5 °F 58% 29.91 in 10.0 mi SW 4.6 mph - N/A   Clear
11:35 PM 70.2 °F 53.8 °F 56% 29.91 in 10.0 mi SW 6.9 mph - N/A   Clear
11:55 PM 69.8 °F 53.6 °F 56% 29.91 in 10.0 mi SW 6.9 mph - N/A   Clear